Location: N�rnberg
(49.4471°N, 11.0632°E)
Time: 18:38:18
(UTC+01:00)

Envisat - Pass Details

Date: 21 February 2026
Orbit: 761 x 763 km, 98.4° (Epoch: 6 March)

Event Time Altitude Azimuth Distance (km) Brightness Sun altitude
Rises 02:43:32 0° 17° (NNE) 3,236 6.9 -42.3°
Reaches altitude 10° 02:45:53 10° 22° (NNE) 2,305 6.0 -42.0°
Enters shadow 02:46:25 13° 23° (NNE) 2,105 5.8 -41.9°
